Regional Weather Roundup
Issued by NWS

Home | Current Version | Previous Version | Graphics & Text | Print | Product List | Glossary On
Versions: 1 2 3 4 5 6 7 8 9 10 11 12 13 14 15 16 17 18 19 20 21 22 23 24 25 26 27 28 29 30 31 32 33 34 35 36 37 38 39 40 41 42 43 44 45 46 47 48 49 50
000
ASUS43 KBIS 220320
RWRND

NORTH DAKOTA REGIONAL WEATHER ROUNDUP
NATIONAL WEATHER SERVICE BISMARCK ND
900 PM CST SUN DEC 21 2014

NOTE: "FAIR" INDICATES FEW OR NO CLOUDS BELOW 12,000 FEET WITH NO
SIGNIFICANT WEATHER AND/OR OBSTRUCTIONS TO VISIBILITY.


NDZ001>003-009>011-017-220400-
NORTHWEST NORTH DAKOTA

CITY           SKY/WX    TMP DP  RH WIND       PRES   REMARKS
WILLISTON      CLOUDY    31  27  85 SE3       29.37R
MINOT          CLOUDY    29  27  92 E12       29.42S FOG     WCI  19
MINOT AFB      FRZ DRZL  30  30 100 SE13      29.42S FOG
$$

NDZ018>021-031>035-040>046-220400-
SOUTHWEST NORTH DAKOTA

CITY           SKY/WX    TMP DP  RH WIND       PRES   REMARKS
BISMARCK       CLOUDY    29  29 100 SE7       29.46S FOG
DICKINSON      CLOUDY    37  34  89 W8        29.35S
GARRISON         N/A     27  25  92 E8        29.41S WCI  19
HETTINGER ARPT CLOUDY    36  34  92 W9        29.39S
$$

NDZ004>008-012>016-024-026-027-054-220400-
NORTHEAST NORTH DAKOTA

CITY           SKY/WX    TMP DP  RH WIND       PRES   REMARKS
GRAND FORKS    CLOUDY    32  31  96 SE10      29.57F
GRND FRKS AFB  CLOUDY    32  32 100 S10       29.56F
DEVILS LAKE    CLOUDY    30  25  80 SE15      29.49S WCI  19
$$

NDZ022-023-025-028>030-036>039-047>053-220400-
SOUTHEAST NORTH DAKOTA

CITY           SKY/WX    TMP DP  RH WIND       PRES   REMARKS
FARGO          CLOUDY    36  32  85 SE15G23   29.56F FOG
JAMESTOWN      CLOUDY    31  30  96 SE9       29.48F FOG
$$



USA.gov is the U.S. government's official web portal to all federal, state and local government web resources and services.